Year,Month,Day,Hour,Minute,Value (Times are PST for temperature in C)
2009,04,27,00,00,5.30
2009,04,27,00,01,5.30
2009,04,27,00,02,5.40
2009,04,27,00,03,5.40
2009,04,27,00,04,5.40
2009,04,27,00,05,5.40
2009,04,27,00,06,5.40
2009,04,27,00,07,5.30
2009,04,27,00,08,5.30
2009,04,27,00,09,5.30
2009,04,27,00,10,5.30
2009,04,27,00,11,5.20
2009,04,27,00,12,5.20
2009,04,27,00,13,5.10
2009,04,27,00,14,5.10
2009,04,27,00,15,5.10
2009,04,27,00,16,5.10
2009,04,27,00,17,5.10
2009,04,27,00,18,5.00
2009,04,27,00,19,5.00
2009,04,27,00,20,5.00
2009,04,27,00,21,4.90
2009,04,27,00,22,4.90
2009,04,27,00,23,4.90
2009,04,27,00,24,4.90
2009,04,27,00,25,4.90
2009,04,27,00,26,4.90
2009,04,27,00,27,4.90
2009,04,27,00,28,4.90
2009,04,27,00,29,4.90
2009,04,27,00,30,4.90
2009,04,27,00,31,4.90
2009,04,27,00,32,4.90
2009,04,27,00,33,4.90
2009,04,27,00,34,4.90
2009,04,27,00,35,4.90
2009,04,27,00,36,4.90
2009,04,27,00,37,4.90
2009,04,27,00,38,4.90
2009,04,27,00,39,4.90
2009,04,27,00,40,4.90
2009,04,27,00,41,4.90
2009,04,27,00,42,4.90
2009,04,27,00,43,4.90
2009,04,27,00,44,4.90
2009,04,27,00,45,4.90
2009,04,27,00,46,4.90
2009,04,27,00,47,4.90
2009,04,27,00,48,4.90
2009,04,27,00,49,4.90
2009,04,27,00,50,4.80
2009,04,27,00,51,4.80
2009,04,27,00,52,4.80
2009,04,27,00,53,4.80
2009,04,27,00,54,4.80
2009,04,27,00,55,4.80
2009,04,27,00,56,4.80
2009,04,27,00,57,4.80
2009,04,27,00,58,4.80
2009,04,27,00,59,4.80
2009,04,27,01,00,4.80
2009,04,27,01,01,4.80
2009,04,27,01,02,4.80
2009,04,27,01,03,4.80
2009,04,27,01,04,4.80
2009,04,27,01,05,4.80
2009,04,27,01,06,4.80
2009,04,27,01,07,4.80
2009,04,27,01,08,4.80
2009,04,27,01,09,4.80
2009,04,27,01,10,4.80
2009,04,27,01,11,4.70
2009,04,27,01,12,4.70
2009,04,27,01,13,4.70
2009,04,27,01,14,4.70
2009,04,27,01,15,4.70
2009,04,27,01,16,4.70
2009,04,27,01,17,4.70
2009,04,27,01,18,4.70
2009,04,27,01,19,4.70
2009,04,27,01,20,4.70
2009,04,27,01,21,4.70
2009,04,27,01,22,4.70
2009,04,27,01,23,4.70
2009,04,27,01,24,4.60
2009,04,27,01,25,4.60
2009,04,27,01,26,4.50
2009,04,27,01,27,4.50
2009,04,27,01,28,4.50
2009,04,27,01,29,4.50
2009,04,27,01,30,4.40
2009,04,27,01,31,4.50
2009,04,27,01,32,4.50
2009,04,27,01,33,4.50
2009,04,27,01,34,4.50
2009,04,27,01,35,4.50
2009,04,27,01,36,4.50
2009,04,27,01,37,4.40
2009,04,27,01,38,4.40
2009,04,27,01,39,4.40
2009,04,27,01,40,4.40
2009,04,27,01,41,4.30
2009,04,27,01,42,4.30
2009,04,27,01,43,4.30
2009,04,27,01,44,4.30
2009,04,27,01,45,4.30
2009,04,27,01,46,4.30
2009,04,27,01,47,4.30
2009,04,27,01,48,4.30
2009,04,27,01,49,4.30
2009,04,27,01,50,4.30
2009,04,27,01,51,4.30
2009,04,27,01,52,4.30
2009,04,27,01,53,4.30
2009,04,27,01,54,4.40
2009,04,27,01,55,4.40
2009,04,27,01,56,4.40
2009,04,27,01,57,4.50
2009,04,27,01,58,4.60
2009,04,27,01,59,4.70
2009,04,27,02,00,4.80
2009,04,27,02,01,4.90
2009,04,27,02,02,5.00
2009,04,27,02,03,5.10
2009,04,27,02,04,5.20
2009,04,27,02,05,5.30
2009,04,27,02,06,5.40
2009,04,27,02,07,5.40
2009,04,27,02,08,5.50
2009,04,27,02,09,5.60
2009,04,27,02,10,5.70
2009,04,27,02,11,5.80
2009,04,27,02,12,5.90
2009,04,27,02,13,5.90
2009,04,27,02,14,6.00
2009,04,27,02,15,6.10
2009,04,27,02,16,6.20
2009,04,27,02,17,6.20
2009,04,27,02,18,6.30
2009,04,27,02,19,6.30
2009,04,27,02,20,6.40
2009,04,27,02,21,6.40
2009,04,27,02,22,6.40
2009,04,27,02,23,6.50
2009,04,27,02,24,6.50
2009,04,27,02,25,6.60
2009,04,27,02,26,6.60
2009,04,27,02,27,6.60
2009,04,27,02,28,6.60
2009,04,27,02,29,6.70
2009,04,27,02,30,6.70
2009,04,27,02,31,6.70
2009,04,27,02,32,6.70
2009,04,27,02,33,6.80
2009,04,27,02,34,6.80
2009,04,27,02,35,6.80
2009,04,27,02,36,6.80
2009,04,27,02,37,6.90
2009,04,27,02,38,6.90
2009,04,27,02,39,6.90
2009,04,27,02,40,6.90
2009,04,27,02,41,6.90
2009,04,27,02,42,6.90
2009,04,27,02,43,6.90
2009,04,27,02,44,7.00
2009,04,27,02,45,7.00
2009,04,27,02,46,7.00
2009,04,27,02,47,7.10
2009,04,27,02,48,7.10
2009,04,27,02,49,7.10
2009,04,27,02,50,7.10
2009,04,27,02,51,7.10
2009,04,27,02,52,7.10
2009,04,27,02,53,7.10
2009,04,27,02,54,7.20
2009,04,27,02,55,7.20
2009,04,27,02,56,7.20
2009,04,27,02,57,7.20
2009,04,27,02,58,7.20
2009,04,27,02,59,7.20
2009,04,27,03,00,7.20
2009,04,27,03,01,7.20
2009,04,27,03,02,7.20
2009,04,27,03,03,7.20
2009,04,27,03,04,7.20
2009,04,27,03,05,7.20
2009,04,27,03,06,7.20
2009,04,27,03,07,7.20
2009,04,27,03,08,7.20
2009,04,27,03,09,7.20
2009,04,27,03,10,7.20
2009,04,27,03,11,7.20
2009,04,27,03,12,7.20
2009,04,27,03,13,7.20
2009,04,27,03,14,7.20
2009,04,27,03,15,7.20
2009,04,27,03,16,7.20
2009,04,27,03,17,7.20
2009,04,27,03,18,7.20
2009,04,27,03,19,7.20
2009,04,27,03,20,7.20
2009,04,27,03,21,7.20
2009,04,27,03,22,7.20
2009,04,27,03,23,7.20
2009,04,27,03,24,7.20
2009,04,27,03,25,7.20
2009,04,27,03,26,7.20
2009,04,27,03,27,7.20
2009,04,27,03,28,7.20
2009,04,27,03,29,7.20
2009,04,27,03,30,7.20
2009,04,27,03,31,7.20
2009,04,27,03,32,7.30
2009,04,27,03,33,7.20
2009,04,27,03,34,7.30
2009,04,27,03,35,7.20
2009,04,27,03,36,7.20
2009,04,27,03,37,7.20
2009,04,27,03,38,7.20
2009,04,27,03,39,7.20
2009,04,27,03,40,7.20
2009,04,27,03,41,7.20
2009,04,27,03,42,7.20
2009,04,27,03,43,7.20
2009,04,27,03,44,7.20
2009,04,27,03,45,7.20
2009,04,27,03,46,7.20
2009,04,27,03,47,7.20
2009,04,27,03,48,7.20
2009,04,27,03,49,7.20
2009,04,27,03,50,7.20
2009,04,27,03,51,7.20
2009,04,27,03,52,7.20
2009,04,27,03,53,7.20
2009,04,27,03,54,7.20
2009,04,27,03,55,7.20
2009,04,27,03,56,7.20
2009,04,27,03,57,7.20
2009,04,27,03,58,7.20
2009,04,27,03,59,7.20
2009,04,27,04,00,7.20
2009,04,27,04,01,7.20
2009,04,27,04,02,7.20
2009,04,27,04,03,7.30
2009,04,27,04,04,7.30
2009,04,27,04,05,7.30
2009,04,27,04,06,7.40
2009,04,27,04,08,7.40
2009,04,27,04,09,7.40
2009,04,27,04,12,7.50
2009,04,27,04,13,7.50
2009,04,27,04,15,7.60
2009,04,27,04,18,7.60
2009,04,27,04,21,7.60
2009,04,27,04,24,7.60
2009,04,27,04,27,7.70
2009,04,27,04,30,7.80
2009,04,27,04,31,7.80
2009,04,27,04,33,7.80
2009,04,27,04,36,7.90
2009,04,27,04,37,7.90
2009,04,27,04,39,7.90
2009,04,27,04,42,7.90
2009,04,27,04,43,7.90
2009,04,27,04,45,8.00
2009,04,27,04,48,8.00
2009,04,27,04,49,8.00
2009,04,27,04,51,8.00
2009,04,27,04,52,8.00
2009,04,27,04,54,8.00
2009,04,27,04,55,8.00
2009,04,27,04,57,8.00
2009,04,27,04,58,8.00
2009,04,27,05,00,8.00
2009,04,27,05,01,8.10
2009,04,27,05,04,8.10
2009,04,27,05,06,8.20
2009,04,27,05,09,8.10
2009,04,27,05,10,8.10
2009,04,27,05,11,8.10
2009,04,27,05,12,8.10
2009,04,27,05,13,8.20
2009,04,27,05,14,8.20
2009,04,27,05,15,8.20
2009,04,27,05,16,8.20
2009,04,27,05,17,8.30
2009,04,27,05,18,8.30
2009,04,27,05,19,8.30
2009,04,27,05,20,8.30
2009,04,27,05,21,8.30
2009,04,27,05,22,8.30
2009,04,27,05,23,8.30
2009,04,27,05,24,8.30
2009,04,27,05,25,8.20
2009,04,27,05,26,8.20
2009,04,27,05,27,8.20
2009,04,27,05,28,8.20
2009,04,27,05,29,8.20
2009,04,27,05,30,8.20
2009,04,27,05,31,8.20
2009,04,27,05,32,8.20
2009,04,27,05,33,8.20
2009,04,27,05,34,8.30
2009,04,27,05,35,8.30
2009,04,27,05,36,8.30
2009,04,27,05,37,8.30
2009,04,27,05,38,8.30
2009,04,27,05,39,8.30
2009,04,27,05,40,8.30
2009,04,27,05,41,8.30
2009,04,27,05,42,8.30
2009,04,27,05,43,8.20
2009,04,27,05,44,8.20
2009,04,27,05,45,8.20
2009,04,27,05,46,8.30
2009,04,27,05,47,8.30
2009,04,27,05,48,8.40
2009,04,27,05,49,8.40
2009,04,27,05,50,8.40
2009,04,27,05,51,8.40
2009,04,27,05,52,8.40
2009,04,27,05,53,8.40
2009,04,27,05,54,8.40
2009,04,27,05,55,8.40
2009,04,27,05,56,8.40
2009,04,27,05,57,8.40
2009,04,27,05,58,8.40
2009,04,27,05,59,8.40
2009,04,27,06,00,8.40
2009,04,27,06,01,8.40
2009,04,27,06,02,8.40
2009,04,27,06,03,8.40
2009,04,27,06,04,8.40
2009,04,27,06,05,8.40
2009,04,27,06,06,8.40
2009,04,27,06,07,8.40
2009,04,27,06,08,8.40
2009,04,27,06,09,8.50
2009,04,27,06,10,8.50
2009,04,27,06,11,8.60
2009,04,27,06,12,8.60
2009,04,27,06,13,8.60
2009,04,27,06,14,8.70
2009,04,27,06,15,8.70
2009,04,27,06,16,8.70
2009,04,27,06,17,8.80
2009,04,27,06,18,8.80
2009,04,27,06,19,8.80
2009,04,27,06,20,8.80
2009,04,27,06,21,8.80
2009,04,27,06,22,8.80
2009,04,27,06,23,8.80
2009,04,27,06,24,8.70
2009,04,27,06,25,8.70
2009,04,27,06,26,8.70
2009,04,27,06,27,8.60
2009,04,27,06,28,8.60
2009,04,27,06,29,8.60
2009,04,27,06,30,8.60
2009,04,27,06,31,8.60
2009,04,27,06,32,8.60
2009,04,27,06,33,8.60
2009,04,27,06,34,8.70
2009,04,27,06,35,8.70
2009,04,27,06,36,8.70
2009,04,27,06,37,8.70
2009,04,27,06,38,8.70
2009,04,27,06,39,8.70
2009,04,27,06,40,8.70
2009,04,27,06,41,8.70
2009,04,27,06,42,8.70
2009,04,27,06,43,8.70
2009,04,27,06,44,8.70
2009,04,27,06,45,8.70
2009,04,27,06,46,8.70
2009,04,27,06,47,8.70
2009,04,27,06,48,8.70
2009,04,27,06,49,8.70
2009,04,27,06,50,8.70
2009,04,27,06,51,8.70
2009,04,27,06,52,8.80
2009,04,27,06,53,8.80
2009,04,27,06,54,8.80
2009,04,27,06,55,8.80
2009,04,27,06,56,8.80
2009,04,27,06,57,8.80
2009,04,27,06,58,8.80
2009,04,27,06,59,8.90
2009,04,27,07,00,8.90
2009,04,27,07,01,8.90
2009,04,27,07,02,8.90
2009,04,27,07,03,8.90
2009,04,27,07,04,8.90
2009,04,27,07,05,8.90
2009,04,27,07,06,8.90
2009,04,27,07,07,8.90
2009,04,27,07,08,8.90
2009,04,27,07,09,8.90
2009,04,27,07,10,8.90
2009,04,27,07,11,8.90
2009,04,27,07,12,8.90
2009,04,27,07,13,9.00
2009,04,27,07,14,9.00
2009,04,27,07,15,9.00
2009,04,27,07,16,9.00
2009,04,27,07,17,9.10
2009,04,27,07,18,9.10
2009,04,27,07,19,9.10
2009,04,27,07,20,9.10
2009,04,27,07,21,9.20
2009,04,27,07,22,9.20
2009,04,27,07,23,9.20
2009,04,27,07,24,9.20
2009,04,27,07,25,9.20
2009,04,27,07,26,9.20
2009,04,27,07,27,9.20
2009,04,27,07,28,9.20
2009,04,27,07,29,9.30
2009,04,27,07,30,9.30
2009,04,27,07,31,9.30
2009,04,27,07,32,9.30
2009,04,27,07,33,9.30
2009,04,27,07,34,9.30
2009,04,27,07,35,9.30
2009,04,27,07,36,9.40
2009,04,27,07,37,9.40
2009,04,27,07,38,9.40
2009,04,27,07,39,9.40
2009,04,27,07,40,9.40
2009,04,27,07,41,9.50
2009,04,27,07,42,9.60
2009,04,27,07,43,9.60
2009,04,27,07,44,9.60
2009,04,27,07,45,9.60
2009,04,27,07,46,9.60
2009,04,27,07,47,9.60
2009,04,27,07,48,9.70
2009,04,27,07,49,9.70
2009,04,27,07,50,9.70
2009,04,27,07,51,9.70
2009,04,27,07,52,9.80
2009,04,27,07,53,9.80
2009,04,27,07,54,9.80
2009,04,27,07,55,9.80
2009,04,27,07,56,9.90
2009,04,27,07,57,9.90
2009,04,27,07,58,9.90
2009,04,27,07,59,10.00
2009,04,27,08,00,10.00
2009,04,27,08,01,10.10
2009,04,27,08,02,10.10
2009,04,27,08,03,10.10
2009,04,27,08,04,10.10
2009,04,27,08,05,10.20
2009,04,27,08,06,10.20
2009,04,27,08,07,10.20
2009,04,27,08,08,10.20
2009,04,27,08,09,10.20
2009,04,27,08,10,10.30
2009,04,27,08,11,10.30
2009,04,27,08,12,10.30
2009,04,27,08,13,10.40
2009,04,27,08,14,10.40
2009,04,27,08,15,10.40
2009,04,27,08,16,10.40
2009,04,27,08,17,10.40
2009,04,27,08,18,10.40
2009,04,27,08,19,10.50
2009,04,27,08,20,10.50
2009,04,27,08,21,10.50
2009,04,27,08,22,10.50
2009,04,27,08,23,10.60
2009,04,27,08,24,10.60
2009,04,27,08,25,10.60
2009,04,27,08,26,10.60
2009,04,27,08,27,10.70
2009,04,27,08,28,10.70
2009,04,27,08,29,10.70
2009,04,27,08,30,10.70
2009,04,27,08,31,10.80
2009,04,27,08,32,10.80
2009,04,27,08,33,10.80
2009,04,27,08,34,10.80
2009,04,27,08,35,10.90
2009,04,27,08,36,10.90
2009,04,27,08,37,10.90
2009,04,27,08,38,10.90
2009,04,27,08,39,10.90
2009,04,27,08,40,10.90
2009,04,27,08,41,10.90
2009,04,27,08,42,11.00
2009,04,27,08,43,11.00
2009,04,27,08,44,11.10
2009,04,27,08,45,11.10
2009,04,27,08,46,11.10
2009,04,27,08,47,11.10
2009,04,27,08,48,11.10
2009,04,27,08,49,11.20
2009,04,27,08,50,11.20
2009,04,27,08,51,11.20
2009,04,27,08,52,11.20
2009,04,27,08,53,11.20
2009,04,27,08,54,11.30
2009,04,27,08,55,11.30
2009,04,27,08,56,11.30
2009,04,27,08,57,11.20
2009,04,27,08,58,11.20
2009,04,27,08,59,11.20
2009,04,27,09,00,11.30
2009,04,27,09,01,11.30
2009,04,27,09,02,11.30
2009,04,27,09,03,11.30
2009,04,27,09,04,11.30
2009,04,27,09,05,11.30
2009,04,27,09,06,11.40
2009,04,27,09,07,11.40
2009,04,27,09,08,11.40
2009,04,27,09,09,11.50
2009,04,27,09,10,11.50
2009,04,27,09,11,11.60
2009,04,27,09,12,11.60
2009,04,27,09,13,11.60
2009,04,27,09,14,11.60
2009,04,27,09,15,11.60
2009,04,27,09,16,11.60
2009,04,27,09,17,11.70
2009,04,27,09,18,11.70
2009,04,27,09,19,11.70
2009,04,27,09,20,11.70
2009,04,27,09,21,11.80
2009,04,27,09,22,11.80
2009,04,27,09,23,11.80
2009,04,27,09,24,11.90
2009,04,27,09,25,11.90
2009,04,27,09,26,11.90
2009,04,27,09,27,11.90
2009,04,27,09,28,11.90
2009,04,27,09,29,11.90
2009,04,27,09,30,11.90
2009,04,27,09,31,12.00
2009,04,27,09,32,12.10
2009,04,27,09,33,12.10
2009,04,27,09,34,12.10
2009,04,27,09,35,12.10
2009,04,27,09,36,12.20
2009,04,27,09,37,12.30
2009,04,27,09,38,12.30
2009,04,27,09,39,12.30
2009,04,27,09,40,12.30
2009,04,27,09,41,12.30
2009,04,27,09,42,12.30
2009,04,27,09,43,12.30
2009,04,27,09,44,12.40
2009,04,27,09,45,12.40
2009,04,27,09,46,12.50
2009,04,27,09,47,12.50
2009,04,27,09,48,12.50
2009,04,27,09,49,12.60
2009,04,27,09,50,12.60
2009,04,27,09,51,12.60
2009,04,27,09,52,12.60
2009,04,27,09,53,12.70
2009,04,27,09,54,12.70
2009,04,27,09,55,12.70
2009,04,27,09,56,12.70
2009,04,27,09,57,12.70
2009,04,27,09,58,12.70
2009,04,27,09,59,12.70
2009,04,27,10,00,12.70
2009,04,27,10,01,12.70
2009,04,27,10,02,12.70
2009,04,27,10,03,12.80
2009,04,27,10,04,12.80
2009,04,27,10,05,12.90
2009,04,27,10,06,12.90
2009,04,27,10,07,13.00
2009,04,27,10,08,12.90
2009,04,27,10,09,12.90
2009,04,27,10,10,12.90
2009,04,27,10,11,12.90
2009,04,27,10,12,12.90
2009,04,27,10,13,12.90
2009,04,27,10,14,12.90
2009,04,27,10,15,12.90
2009,04,27,10,16,12.90
2009,04,27,10,17,12.90
2009,04,27,10,18,12.90
2009,04,27,10,19,12.90
2009,04,27,10,20,12.80
2009,04,27,10,21,12.80
2009,04,27,10,22,12.90
2009,04,27,10,23,12.90
2009,04,27,10,24,12.90
2009,04,27,10,25,12.90
2009,04,27,10,26,12.90
2009,04,27,10,27,13.00
2009,04,27,10,28,13.10
2009,04,27,10,29,13.10
2009,04,27,10,30,13.20
2009,04,27,10,31,13.20
2009,04,27,10,32,13.20
2009,04,27,10,33,13.30
2009,04,27,10,34,13.30
2009,04,27,10,35,13.40
2009,04,27,10,36,13.50
2009,04,27,10,37,13.60
2009,04,27,10,38,13.60
2009,04,27,10,39,13.60
2009,04,27,10,40,13.60
2009,04,27,10,41,13.70
2009,04,27,10,42,13.80
2009,04,27,10,43,13.90
2009,04,27,10,44,14.10
2009,04,27,10,45,14.20
2009,04,27,10,46,14.30
2009,04,27,10,47,14.40
2009,04,27,10,48,14.50
2009,04,27,10,49,14.50
2009,04,27,10,50,14.60
2009,04,27,10,51,14.70
2009,04,27,10,52,14.70
2009,04,27,10,53,14.80
2009,04,27,10,54,14.80
2009,04,27,10,55,14.80
2009,04,27,10,56,14.80
2009,04,27,10,57,14.80
2009,04,27,10,58,14.80
2009,04,27,10,59,14.70
2009,04,27,11,00,14.60
2009,04,27,11,01,14.60
2009,04,27,11,02,14.60
2009,04,27,11,03,14.50
2009,04,27,11,04,14.60
2009,04,27,11,05,14.60
2009,04,27,11,06,14.70
2009,04,27,11,07,14.80
2009,04,27,11,08,15.00
2009,04,27,11,09,15.00
2009,04,27,11,10,15.10
2009,04,27,11,11,15.10
2009,04,27,11,12,15.00
2009,04,27,11,13,15.00
2009,04,27,11,14,15.00
2009,04,27,11,15,15.00
2009,04,27,11,16,15.10
2009,04,27,11,17,15.20
2009,04,27,11,18,15.30
2009,04,27,11,19,15.10
2009,04,27,11,20,15.00
2009,04,27,11,21,15.00
2009,04,27,11,22,15.20
2009,04,27,11,23,15.40
2009,04,27,11,24,15.50
2009,04,27,11,25,15.50
2009,04,27,11,26,15.70
2009,04,27,11,27,15.70
2009,04,27,11,28,15.80
2009,04,27,11,29,15.90
2009,04,27,11,30,15.90
2009,04,27,11,31,15.90
2009,04,27,11,32,16.00
2009,04,27,11,33,16.00
2009,04,27,11,34,15.90
2009,04,27,11,35,15.90
2009,04,27,11,36,15.90
2009,04,27,11,37,16.00
2009,04,27,11,38,16.10
2009,04,27,11,39,16.20
2009,04,27,11,40,16.30
2009,04,27,11,41,16.40
2009,04,27,11,42,16.40
2009,04,27,11,43,16.40
2009,04,27,11,44,16.40
2009,04,27,11,45,16.30
2009,04,27,11,46,16.20
2009,04,27,11,47,16.20
2009,04,27,11,48,16.20
2009,04,27,11,49,16.10
2009,04,27,11,50,16.10
2009,04,27,11,51,16.20
2009,04,27,11,52,16.20
2009,04,27,11,53,16.30
2009,04,27,11,54,16.40
2009,04,27,11,55,16.40
2009,04,27,11,56,16.30
2009,04,27,11,57,16.30
2009,04,27,11,58,16.30
2009,04,27,11,59,16.40
2009,04,27,12,00,16.40
2009,04,27,12,01,16.40
2009,04,27,12,02,16.50
2009,04,27,12,03,16.60
2009,04,27,12,04,16.60
2009,04,27,12,05,16.60
2009,04,27,12,06,16.60
2009,04,27,12,07,16.60
2009,04,27,12,08,16.60
2009,04,27,12,09,16.60
2009,04,27,12,10,16.60
2009,04,27,12,11,16.50
2009,04,27,12,12,16.50
2009,04,27,12,13,16.40
2009,04,27,12,14,16.40
2009,04,27,12,15,16.40
2009,04,27,12,16,16.40
2009,04,27,12,17,16.50
2009,04,27,12,18,16.60
2009,04,27,12,19,16.70
2009,04,27,12,20,16.80
2009,04,27,12,21,16.80
2009,04,27,12,22,16.90
2009,04,27,12,23,16.90
2009,04,27,12,24,16.90
2009,04,27,12,25,16.80
2009,04,27,12,26,16.60
2009,04,27,12,27,16.40
2009,04,27,12,28,16.30
2009,04,27,12,29,16.30
2009,04,27,12,30,16.30
2009,04,27,12,31,16.30
2009,04,27,12,32,16.40
2009,04,27,12,33,16.50
2009,04,27,12,34,16.50
2009,04,27,12,35,16.50
2009,04,27,12,36,16.50
2009,04,27,12,37,16.50
2009,04,27,12,38,16.60
2009,04,27,12,39,16.60
2009,04,27,12,40,16.70
2009,04,27,12,41,16.80
2009,04,27,12,42,16.80
2009,04,27,12,43,16.90
2009,04,27,12,44,17.00
2009,04,27,12,45,17.10
2009,04,27,12,46,17.00
2009,04,27,12,47,16.80
2009,04,27,12,48,16.70
2009,04,27,12,49,16.60
2009,04,27,12,50,16.50
2009,04,27,12,51,16.40
2009,04,27,12,52,16.40
2009,04,27,12,53,16.30
2009,04,27,12,54,16.30
2009,04,27,12,55,16.20
2009,04,27,12,56,16.10
2009,04,27,12,57,15.90
2009,04,27,12,58,15.90
2009,04,27,12,59,15.90
2009,04,27,13,00,16.00
2009,04,27,13,01,16.00
2009,04,27,13,02,16.10
2009,04,27,13,03,16.20
2009,04,27,13,04,16.30
2009,04,27,13,05,16.30
2009,04,27,13,06,16.30
2009,04,27,13,07,16.40
2009,04,27,13,08,16.40
2009,04,27,13,09,16.50
2009,04,27,13,10,16.40
2009,04,27,13,11,16.40
2009,04,27,13,12,16.40
2009,04,27,13,13,16.50
2009,04,27,13,14,16.60
2009,04,27,13,15,16.70
2009,04,27,13,16,16.70
2009,04,27,13,17,16.70
2009,04,27,13,18,16.70
2009,04,27,13,19,16.70
2009,04,27,13,20,16.80
2009,04,27,13,21,16.90
2009,04,27,13,22,16.90
2009,04,27,13,23,16.90
2009,04,27,13,24,16.80
2009,04,27,13,25,16.70
2009,04,27,13,26,16.70
2009,04,27,13,27,16.60
2009,04,27,13,28,16.60
2009,04,27,13,29,16.70
2009,04,27,13,30,16.70
2009,04,27,13,31,16.70
2009,04,27,13,32,16.70
2009,04,27,13,33,16.70
2009,04,27,13,34,16.70
2009,04,27,13,35,16.70
2009,04,27,13,36,16.60
2009,04,27,13,37,16.50
2009,04,27,13,38,16.40
2009,04,27,13,39,16.30
2009,04,27,13,40,16.30
2009,04,27,13,41,16.40
2009,04,27,13,42,16.40
2009,04,27,13,43,16.50
2009,04,27,13,44,16.60
2009,04,27,13,45,16.60
2009,04,27,13,46,16.70
2009,04,27,13,47,16.70
2009,04,27,13,48,16.80
2009,04,27,13,49,16.80
2009,04,27,13,50,16.90
2009,04,27,13,51,17.10
2009,04,27,13,52,17.20
2009,04,27,13,53,17.30
2009,04,27,13,54,17.30
2009,04,27,13,55,17.20
2009,04,27,13,56,17.10
2009,04,27,13,57,17.00
2009,04,27,13,58,16.80
2009,04,27,13,59,16.70
2009,04,27,14,00,16.70
2009,04,27,14,01,16.70
2009,04,27,14,02,16.60
2009,04,27,14,03,16.50
2009,04,27,14,04,16.60
2009,04,27,14,05,16.60
2009,04,27,14,06,16.60
2009,04,27,14,07,16.70
2009,04,27,14,08,16.80
2009,04,27,14,09,16.80
2009,04,27,14,10,16.80
2009,04,27,14,11,16.80
2009,04,27,14,12,16.80
2009,04,27,14,13,16.90
2009,04,27,14,14,16.90
2009,04,27,14,15,16.90
2009,04,27,14,16,16.90
2009,04,27,14,17,17.00
2009,04,27,14,18,17.00
2009,04,27,14,19,17.10
2009,04,27,14,20,17.10
2009,04,27,14,21,17.00
2009,04,27,14,22,17.00
2009,04,27,14,23,17.00
2009,04,27,14,24,17.00
2009,04,27,14,25,17.00
2009,04,27,14,26,17.00
2009,04,27,14,27,17.00
2009,04,27,14,28,17.00
2009,04,27,14,29,16.90
2009,04,27,14,30,16.90
2009,04,27,14,31,17.10
2009,04,27,14,32,17.10
2009,04,27,14,33,17.00
2009,04,27,14,34,17.00
2009,04,27,14,35,16.90
2009,04,27,14,36,16.90
2009,04,27,14,37,16.90
2009,04,27,14,38,16.80
2009,04,27,14,39,16.80
2009,04,27,14,40,16.80
2009,04,27,14,41,16.80
2009,04,27,14,42,16.70
2009,04,27,14,43,16.70
2009,04,27,14,44,16.70
2009,04,27,14,45,16.70
2009,04,27,14,46,16.80
2009,04,27,14,47,16.80
2009,04,27,14,48,16.80
2009,04,27,14,49,16.80
2009,04,27,14,50,16.80
2009,04,27,14,51,16.90
2009,04,27,14,52,16.90
2009,04,27,14,53,17.00
2009,04,27,14,54,17.10
2009,04,27,14,55,17.10
2009,04,27,14,56,17.10
2009,04,27,14,57,17.10
2009,04,27,14,58,17.10
2009,04,27,14,59,17.20
2009,04,27,15,00,17.30
2009,04,27,15,01,17.40
2009,04,27,15,02,17.40
2009,04,27,15,03,17.40
2009,04,27,15,04,17.30
2009,04,27,15,05,17.20
2009,04,27,15,06,17.10
2009,04,27,15,07,17.10
2009,04,27,15,08,17.00
2009,04,27,15,09,17.00
2009,04,27,15,10,17.00
2009,04,27,15,11,17.00
2009,04,27,15,12,17.10
2009,04,27,15,13,17.20
2009,04,27,15,14,17.30
2009,04,27,15,15,17.40
2009,04,27,15,16,17.40
2009,04,27,15,17,17.50
2009,04,27,15,18,17.50
2009,04,27,15,19,17.50
2009,04,27,15,20,17.50
2009,04,27,15,21,17.40
2009,04,27,15,22,17.30
2009,04,27,15,23,17.20
2009,04,27,15,24,17.10
2009,04,27,15,25,17.10
2009,04,27,15,26,17.10
2009,04,27,15,27,17.00
2009,04,27,15,28,17.00
2009,04,27,15,29,17.00
2009,04,27,15,30,17.10
2009,04,27,15,31,17.10
2009,04,27,15,32,17.30
2009,04,27,15,33,17.30
2009,04,27,15,34,17.40
2009,04,27,15,35,17.40
2009,04,27,15,36,17.50
2009,04,27,15,37,17.40
2009,04,27,15,38,17.40
2009,04,27,15,39,17.40
2009,04,27,15,40,17.40
2009,04,27,15,41,17.40
2009,04,27,15,42,17.50
2009,04,27,15,43,17.50
2009,04,27,15,44,17.40
2009,04,27,15,45,17.40
2009,04,27,15,46,17.40
2009,04,27,15,47,17.40
2009,04,27,15,48,17.40
2009,04,27,15,49,17.40
2009,04,27,15,50,17.40
2009,04,27,15,51,17.50
2009,04,27,15,52,17.60
2009,04,27,15,53,17.70
2009,04,27,15,54,17.80
2009,04,27,15,55,17.90
2009,04,27,15,56,18.00
2009,04,27,15,57,18.00
2009,04,27,15,58,17.90
2009,04,27,15,59,17.80
2009,04,27,16,00,17.70
2009,04,27,16,01,17.70
2009,04,27,16,02,17.80
2009,04,27,16,03,17.80
2009,04,27,16,04,17.80
2009,04,27,16,05,17.90
2009,04,27,16,06,17.90
2009,04,27,16,07,18.00
2009,04,27,16,08,18.00
2009,04,27,16,09,18.00
2009,04,27,16,10,18.00
2009,04,27,16,11,18.10
2009,04,27,16,12,18.10
2009,04,27,16,13,17.90
2009,04,27,16,14,17.90
2009,04,27,16,15,17.80
2009,04,27,16,16,17.80
2009,04,27,16,17,17.70
2009,04,27,16,18,17.70
2009,04,27,16,19,17.70
2009,04,27,16,20,17.70
2009,04,27,16,21,17.70
2009,04,27,16,22,17.70
2009,04,27,16,23,17.60
2009,04,27,16,24,17.60
2009,04,27,16,25,17.60
2009,04,27,16,26,17.70
2009,04,27,16,27,17.80
2009,04,27,16,28,17.80
2009,04,27,16,29,17.80
2009,04,27,16,30,17.70
2009,04,27,16,31,17.70
2009,04,27,16,32,17.60
2009,04,27,16,33,17.50
2009,04,27,16,34,17.40
2009,04,27,16,35,17.40
2009,04,27,16,36,17.40
2009,04,27,16,37,17.40
2009,04,27,16,38,17.30
2009,04,27,16,39,17.30
2009,04,27,16,40,17.40
2009,04,27,16,41,17.40
2009,04,27,16,42,17.40
2009,04,27,16,43,17.50
2009,04,27,16,44,17.60
2009,04,27,16,45,17.60
2009,04,27,16,46,17.60
2009,04,27,16,47,17.60
2009,04,27,16,48,17.50
2009,04,27,16,49,17.40
2009,04,27,16,50,17.40
2009,04,27,16,51,17.30
2009,04,27,16,52,17.30
2009,04,27,16,53,17.30
2009,04,27,16,54,17.30
2009,04,27,16,55,17.30
2009,04,27,16,56,17.30
2009,04,27,16,57,17.40
2009,04,27,16,58,17.40
2009,04,27,16,59,17.40
2009,04,27,17,00,17.50
2009,04,27,17,01,17.50
2009,04,27,17,02,17.60
2009,04,27,17,03,17.70
2009,04,27,17,04,17.80
2009,04,27,17,05,17.90
2009,04,27,17,06,17.90
2009,04,27,17,07,17.90
2009,04,27,17,08,17.90
2009,04,27,17,09,17.90
2009,04,27,17,10,17.80
2009,04,27,17,11,17.80
2009,04,27,17,12,17.80
2009,04,27,17,13,17.80
2009,04,27,17,14,17.80
2009,04,27,17,15,17.80
2009,04,27,17,16,17.80
2009,04,27,17,17,17.80
2009,04,27,17,18,17.70
2009,04,27,17,19,17.70
2009,04,27,17,20,17.60
2009,04,27,17,21,17.60
2009,04,27,17,22,17.60
2009,04,27,17,23,17.70
2009,04,27,17,24,17.80
2009,04,27,17,25,17.80
2009,04,27,17,26,17.80
2009,04,27,17,27,17.80
2009,04,27,17,28,17.80
2009,04,27,17,29,17.80
2009,04,27,17,30,17.80
2009,04,27,17,31,17.80
2009,04,27,17,32,17.90
2009,04,27,17,33,18.00
2009,04,27,17,34,18.10
2009,04,27,17,35,18.20
2009,04,27,17,36,18.20
2009,04,27,17,37,18.20
2009,04,27,17,38,18.10
2009,04,27,17,39,18.10
2009,04,27,17,40,18.10
2009,04,27,17,41,18.10
2009,04,27,17,42,18.10
2009,04,27,17,43,18.10
2009,04,27,17,44,18.00
2009,04,27,17,45,17.90
2009,04,27,17,46,17.90
2009,04,27,17,47,17.90
2009,04,27,17,48,17.90
2009,04,27,17,49,17.90
2009,04,27,17,50,17.80
2009,04,27,17,51,17.80
2009,04,27,17,52,17.70
2009,04,27,17,53,17.70
2009,04,27,17,54,17.70
2009,04,27,17,55,17.70
2009,04,27,17,56,17.60
2009,04,27,17,57,17.50
2009,04,27,17,58,17.50
2009,04,27,17,59,17.50
2009,04,27,18,00,17.50
2009,04,27,18,01,17.40
2009,04,27,18,02,17.30
2009,04,27,18,03,17.20
2009,04,27,18,04,17.20
2009,04,27,18,05,17.20
2009,04,27,18,06,17.10
2009,04,27,18,07,17.10
2009,04,27,18,08,17.10
2009,04,27,18,09,17.10
2009,04,27,18,10,17.10